Location: Central Falls
(41.8900°N, 71.3929°W)
Time: 15:20:26
(UTC+00:00)

Hubble Space Telescope - Pass Details

Date: 22 September 2023
Orbit: 518 x 522 km, 28.5° (Epoch: 06 December)

Event Time Altitude Azimuth Distance (km) Brightness Sun altitude
Exits shadow 07:49:42 - 130° (SE) 2,251 4.1 -29.7°
Enters shadow 08:49:11 -65° 279° (W) 12,160 7.6 -19.7°
Maximum altitude 09:26:29 12° 180° (S) 1,617 3.1 -13.1°
